GW3504 Weather Reports


time (UTC)temp
F
wind
direction
speed
knots
gust
knots
rain 1hr
in
rain 24hr
in
rain mn
in
humidity
%
barometer
mb
20260508043522 60 0 2.6 7.8 0.00 0.00 0.00 59 1011.2
20260508043053 60 188 2.6 7.0 0.00 0.00 0.00 59 1011.3
20260508042524 61 157 2.6 8.7 0.00 0.00 0.00 59 1011.4
20260508042022 61 163 1.7 8.7 0.00 0.00 0.00 59 1011.3
20260508041537 61 163 1.7 8.7 0.00 0.00 0.00 59 1011.4
20260508041025 61 186 2.6 8.7 0.00 0.00 0.00 60 1011.4
20260508040523 61 152 0.9 7.0 0.00 0.00 0.00 59 1011.4
20260508040036 61 146 0.9 7.8 0.00 0.00 0.00 60 1011.4
20260508035523 61 180 0.9 7.8 0.00 0.00 0.00 60 1011.3
20260508035025 61 198 0.9 7.8 0.00 0.00 0.00 60 1011.3
20260508034535 61 222 2.6 7.8 0.00 0.00 0.00 60 1011.4
20260508034023 61 181 1.7 7.0 0.00 0.00 0.00 59 1011.4
20260508033525 61 188 2.6 7.8 0.00 0.00 0.00 59 1011.3
20260508033038 61 160 1.7 7.8 0.00 0.00 0.00 59 1011.2
20260508032523 62 165 0.9 7.8 0.00 0.00 0.00 59 1011.2
20260508032023 62 148 1.7 8.7 0.00 0.00 0.00 58 1011.2
20260508031536 62 165 2.6 8.7 0.00 0.00 0.00 58 1011.2
20260508031024 62 0 1.7 8.7 0.00 0.00 0.00 57 1011.1
20260508030522 62 229 1.7 8.7 0.00 0.00 0.00 57 1011.2
20260508030048 63 154 0.9 9.6 0.00 0.00 0.00 57 1011.0
20260508025522 63 183 3.5 9.6 0.00 0.00 0.00 56 1010.9
20260508025023 63 194 3.5 8.7 0.00 0.00 0.00 56 1010.9
20260508024536 63 163 2.6 9.6 0.00 0.00 0.00 56 1010.8
20260508024025 63 0 1.7 9.6 0.00 0.00 0.00 56 1010.8
20260508023524 63 182 0.9 8.7 0.00 0.00 0.00 55 1010.8
20260508023037 63 186 2.6 8.7 0.00 0.00 0.00 55 1010.7
20260508022523 64 165 2.6 7.0 0.00 0.00 0.00 54 1010.8
20260508022021 64 170 1.7 8.7 0.00 0.00 0.00 54 1010.6
20260508021541 64 173 1.7 8.7 0.00 0.00 0.00 53 1010.6
20260508021024 64 162 0.9 7.0 0.00 0.00 0.00 53 1010.6
20260508020526 64 184 1.7 7.0 0.00 0.00 0.00 53 1010.6
20260508020036 64 173 1.7 7.0 0.00 0.00 0.00 52 1010.4
20260508015524 65 188 0.9 7.0 0.00 0.00 0.00 51 1010.4
20260508015024 65 155 1.7 7.0 0.00 0.00 0.00 51 1010.3
20260508014535 65 0 0.9 6.1 0.00 0.00 0.00 50 1010.3
20260508014024 65 169 0.9 5.2 0.00 0.00 0.00 49 1010.4
20260508013523 65 179 0.9 5.2 0.00 0.00 0.00 48 1010.2
20260508013034 65 175 1.7 6.1 0.00 0.00 0.00 49 1010.2
20260508012523 65 0 1.7 6.1 0.00 0.00 0.00 48 1010.3
20260508012024 66 182 0.9 5.2 0.00 0.00 0.00 48 1010.3
20260508011536 66 146 0.9 6.1 0.00 0.00 0.00 47 1010.2
20260508011023 66 183 1.7 6.1 0.00 0.00 0.00 47 1010.1
20260508010523 66 177 1.7 5.2 0.00 0.00 0.00 47 1010.1
20260508010042 67 160 0.9 6.1 0.00 0.00 0.00 46 1010.1
20260508005526 67 0 1.7 7.0 0.00 0.00 0.00 46 1010.1
20260508005023 67 150 0.9 7.0 0.00 0.00 0.00 46 1010.2
20260508004538 67 158 1.7 6.1 0.00 0.00 0.00 45 1010.1
20260508004023 67 152 1.7 6.1 0.00 0.00 0.00 45 1010.2
20260508003522 68 157 0.9 6.1 0.00 0.00 0.00 45 1010.1
20260508003037 68 0 0.9 6.1 0.00 0.00 0.00 45 1010.2
20260508002524 68 163 0.9 6.1 0.00 0.00 0.00 44 1010.2
20260508002023 68 162 0.9 7.0 0.00 0.00 0.00 44 1010.1
20260508001536 68 179 0.9 7.0 0.00 0.00 0.00 43 1010.1
20260508001023 68 153 0.9 7.8 0.00 0.00 0.00 43 1010.2
20260508000526 69 0 1.7 9.6 0.00 0.00 0.00 43 1010.2
20260508000034 69 136 2.6 9.6 0.00 0.00 0.00 43 1010.2
20260507235523 69 180 2.6 9.6 0.00 0.00 0.00 42 1010.2
20260507235023 69 190 3.5 9.6 0.00 0.00 0.00 42 1010.3
20260507234541 70 215 1.7 13.0 0.00 0.00 0.00 41 1010.3
20260507234024 70 190 2.6 13.0 0.00 0.00 0.00 42 1010.4
20260507233523 70 170 1.7 8.7 0.00 0.00 0.00 41 1010.4
20260507233036 70 273 1.7 8.7 0.00 0.00 0.00 42 1010.4
20260507232524 70 169 1.7 8.7 0.00 0.00 0.00 41 1010.5
20260507232024 71 142 2.6 7.8 0.00 0.00 0.00 41 1010.6
20260507231535 71 135 1.7 8.7 0.00 0.00 0.00 42 1010.6
20260507231023 71 140 1.7 8.7 0.00 0.00 0.00 41 1010.7
20260507230522 71 273 0.9 9.6 0.00 0.00 0.00 42 1010.7
20260507230036 71 248 1.7 10.4 0.00 0.00 0.00 43 1010.8
20260507225524 71 194 2.6 10.4 0.00 0.00 0.00 42 1010.8
20260507225022 70 292 1.7 7.8 0.00 0.00 0.00 43 1010.9
20260507224535 70 0 2.6 7.8 0.00 0.00 0.00 42 1010.9
20260507224023 71 0 1.7 7.0 0.00 0.00 0.00 42 1011.0
20260507223523 71 155 1.7 7.0 0.00 0.00 0.00 42 1011.0
20260507223034 71 0 1.7 7.0 0.00 0.00 0.00 42 1011.1
20260507222523 71 163 1.7 6.1 0.00 0.00 0.00 44 1011.1
20260507222022 70 180 1.7 7.0 0.00 0.00 0.00 43 1011.1
20260507221535 70 118 0.9 7.8 0.00 0.00 0.00 44 1011.2
20260507221022 70 148 2.6 9.6 0.00 0.00 0.00 43 1011.2
20260507220524 70 0 1.7 9.6 0.00 0.00 0.00 43 1011.2
20260507220037 70 341 2.6 7.8 0.00 0.00 0.00 43 1011.2
20260507215524 70 0 1.7 10.4 0.00 0.00 0.00 42 1011.3
20260507215027 70 0 3.5 10.4 0.00 0.00 0.00 43 1011.3
20260507214534 70 210 2.6 11.3 0.00 0.00 0.00 43 1011.3
20260507214023 70 121 2.6 11.3 0.00 0.00 0.00 44 1011.4
20260507213523 70 151 1.7 8.7 0.00 0.00 0.00 44 1011.4
20260507213038 70 260 2.6 10.4 0.00 0.00 0.00 41 1011.4
20260507212523 70 155 2.6 10.4 0.00 0.00 0.00 42 1011.6
20260507212021 70 283 0.9 13.9 0.00 0.00 0.00 46 1011.7
20260507211533 70 192 4.3 13.9 0.00 0.00 0.00 44 1011.7
20260507211021 70 178 3.5 10.4 0.00 0.00 0.00 45 1011.8
20260507210523 70 257 2.6 15.6 0.00 0.00 0.00 43 1011.8
20260507210036 70 162 1.7 15.6 0.00 0.00 0.00 43 1012.0
20260507205524 70 138 2.6 10.4 0.00 0.00 0.00 44 1012.1
20260507205024 70 148 2.6 11.3 0.00 0.00 0.00 46 1012.2
20260507204538 70 350 4.3 11.3 0.00 0.00 0.00 43 1012.2
20260507204023 70 352 2.6 10.4 0.00 0.00 0.00 44 1012.4
20260507203525 70 0 1.7 10.4 0.00 0.00 0.00 44 1012.4
20260507203036 69 288 4.3 10.4 0.00 0.00 0.00 44 1012.7
20260507202523 69 135 0.9 8.7 0.00 0.00 0.00 47 1012.7
20260507202023 69 232 3.5 12.2 0.00 0.00 0.00 47 1012.8
20260507201539 69 311 3.5 12.2 0.00 0.00 0.00 44 1012.9
20260507201024 69 166 3.5 12.2 0.00 0.00 0.00 45 1012.9
20260507200525 69 331 1.7 10.4 0.00 0.00 0.00 46 1013.1
20260507200048 69 276 2.6 7.8 0.00 0.00 0.00 45 1013.1
20260507195521 69 157 1.7 8.7 0.00 0.00 0.00 47 1013.4
20260507195028 68 0 2.6 9.6 0.00 0.00 0.00 47 1013.4
20260507194545 68 308 3.5 10.4 0.00 0.00 0.00 47 1013.5
20260507194023 68 243 2.6 13.9 0.00 0.00 0.00 47 1013.6
20260507193525 68 181 1.7 13.9 0.00 0.00 0.00 48 1013.5
20260507193037 68 316 2.6 13.9 0.00 0.00 0.00 48 1013.7
20260507192523 68 187 2.6 9.6 0.00 0.00 0.00 47 1013.6
20260507192022 68 248 2.6 10.4 0.00 0.00 0.00 48 1013.8
20260507191535 67 317 2.6 15.6 0.00 0.00 0.00 49 1013.7
20260507191023 67 166 1.7 15.6 0.00 0.00 0.00 50 1013.8
20260507190524 67 245 4.3 10.4 0.00 0.00 0.00 47 1013.8
20260507190035 68 236 1.7 11.3 0.00 0.00 0.00 49 1013.8
20260507185523 67 238 2.6 13.9 0.00 0.00 0.00 51 1013.8
20260507185025 66 0 3.5 13.9 0.00 0.00 0.00 49 1013.8
20260507184554 67 211 2.6 10.4 0.00 0.00 0.00 50 1013.9
20260507184024 66 333 2.6 9.6 0.00 0.00 0.00 51 1013.9
20260507183525 66 186 3.5 9.6 0.00 0.00 0.00 50 1014.1
20260507183042 66 251 1.7 8.7 0.00 0.00 0.00 51 1014.2
20260507182525 66 334 2.6 14.8 0.00 0.00 0.00 51 1014.2
20260507182025 65 292 2.6 14.8 0.00 0.00 0.00 51 1014.5
20260507181539 66 319 2.6 12.2 0.00 0.00 0.00 53 1014.5
20260507181027 65 279 3.5 11.3 0.00 0.00 0.00 52 1014.6
20260507180524 65 248 2.6 9.6 0.00 0.00 0.00 53 1014.7
20260507180034 65 252 2.6 9.6 0.00 0.00 0.00 52 1014.8
20260507175525 65 281 1.7 10.4 0.00 0.00 0.00 52 1014.7
20260507175024 65 297 1.7 10.4 0.00 0.00 0.00 53 1014.8
20260507174536 65 317 1.7 9.6 0.00 0.00 0.00 52 1014.9
20260507174025 64 169 1.7 13.9 0.00 0.00 0.00 54 1015.0
20260507173523 63 193 4.3 13.9 0.00 0.00 0.00 52 1015.1
20260507173043 63 0 1.7 12.2 0.00 0.00 0.00 54 1015.3
20260507172525 62 103 4.3 12.2 0.00 0.00 0.00 54 1015.4
20260507172025 63 193 1.7 12.2 0.00 0.00 0.00 55 1015.4
20260507171536 63 329 1.7 9.6 0.00 0.00 0.00 55 1015.3
20260507171026 62 0 2.6 12.2 0.00 0.00 0.00 56 1015.4
20260507170526 62 305 3.5 12.2 0.00 0.00 0.00 56 1015.5
20260507170035 62 290 2.6 10.4 0.00 0.00 0.00 56 1015.6
20260507165523 62 269 1.7 10.4 0.00 0.00 0.00 55 1015.6
20260507165024 62 292 3.5 10.4 0.00 0.00 0.00 57 1015.7
20260507164543 63 261 1.7 9.6 0.00 0.00 0.00 57 1015.7
20260507164024 62 5 1.7 8.7 0.00 0.00 0.00 56 1015.8
20260507163526 62 184 1.7 12.2 0.00 0.00 0.00 54 1015.9
20260507163037 62 315 1.7 12.2 0.00 0.00 0.00 56 1016.0
20260507162525 62 302 0.9 10.4 0.00 0.00 0.00 58 1016.1
20260507162025 61 5 1.7 7.8 0.00 0.00 0.00 59 1016.0
20260507161547 60 157 1.7 7.8 0.00 0.00 0.00 58 1016.2
20260507161025 62 109 0.9 8.7 0.00 0.00 0.00 58 1016.2
20260507160528 62 157 0.9 8.7 0.00 0.00 0.00 57 1016.1
20260507160036 62 295 0.9 7.8 0.00 0.00 0.00 56 1016.3
20260507155524 61 0 0.9 7.8 0.00 0.00 0.00 60 1016.3
20260507155026 60 0 1.7 7.8 0.00 0.00 0.00 57 1016.3
20260507154537 61 315 0.9 7.0 0.00 0.00 0.00 58 1016.2
20260507154025 60 279 0.9 7.0 0.00 0.00 0.00 57 1016.1
20260507153525 60 292 0.9 14.8 0.00 0.00 0.00 60 1016.4
20260507153035 59 294 2.6 14.8 0.00 0.00 0.00 61 1016.5
20260507152524 60 302 0.9 10.4 0.00 0.00 0.00 61 1016.5
20260507152024 59 329 2.6 10.4 0.00 0.00 0.00 61 1016.5
20260507151535 59 0 1.7 7.8 0.00 0.00 0.00 59 1016.6
20260507151025 60 311 0.0 8.7 0.00 0.00 0.00 63 1016.6
20260507150526 58 0 1.7 8.7 0.00 0.00 0.00 62 1016.6
20260507150039 59 211 0.9 5.2 0.00 0.00 0.00 61 1016.8
20260507145524 59 0 0.0 8.7 0.00 0.00 0.00 63 1016.7
20260507145028 58 351 1.7 8.7 0.00 0.00 0.00 62 1016.8
20260507144537 58 0 0.9 8.7 0.00 0.00 0.00 65 1016.9
20260507144025 57 0 0.9 8.7 0.00 0.00 0.00 66 1016.9
20260507143526 57 0 1.7 8.7 0.00 0.00 0.00 64 1016.9
20260507143055 57 280 0.9 7.8 0.00 0.00 0.00 65 1016.8
20260507142527 57 0 0.9 12.2 0.00 0.00 0.00 67 1016.8
20260507142025 56 278 0.0 12.2 0.00 0.00 0.00 68 1016.9
20260507141600 56 281 0.9 5.2 0.00 0.00 0.00 68 1017.0
20260507141025 55 0 0.9 7.0 0.00 0.00 0.00 69 1017.0
20260507140525 55 0 0.0 7.0 0.00 0.00 0.00 70 1016.9
20260507140041 55 163 0.0 7.0 0.00 0.00 0.00 69 1017.0
20260507135525 54 0 0.9 9.6 0.00 0.00 0.00 71 1017.1
20260507135025 54 301 0.0 9.6 0.00 0.00 0.00 72 1017.2
20260507134535 53 308 0.9 9.6 0.00 0.00 0.00 72 1017.2
20260507134029 53 0 0.0 3.5 0.00 0.00 0.00 73 1017.2
20260507133528 52 248 0.0 6.1 0.00 0.00 0.00 75 1017.1
20260507133037 52 0 0.0 6.1 0.00 0.00 0.00 75 1017.1
20260507132524 52 0 0.0 6.1 0.00 0.00 0.00 76 1017.2
20260507132024 51 0 0.0 3.5 0.00 0.00 0.00 78 1017.0
20260507131541 51 0 0.0 3.5 0.00 0.00 0.00 78 1017.1
20260507131028 50 0 0.0 1.7 0.00 0.00 0.00 80 1017.2
20260507130527 49 0 0.0 1.7 0.00 0.00 0.00 81 1017.2
20260507130045 49 0 0.0 1.7 0.00 0.00 0.00 81 1017.2
20260507125525 49 0 0.0 3.5 0.00 0.00 0.00 82 1017.2
20260507125027 48 0 0.0 3.5 0.00 0.00 0.00 83 1017.2
20260507124540 47 0 0.0 1.7 0.00 0.00 0.00 84 1017.3
20260507124025 47 0 0.0 0.0 0.00 0.00 0.00 85 1017.4
20260507123525 46 0 0.0 0.0 0.00 0.00 0.00 86 1017.4
20260507123040 46 0 0.0 1.7 0.00 0.00 0.00 86 1017.4
20260507122524 46 0 0.0 1.7 0.00 0.00 0.00 87 1017.4
20260507122024 45 0 0.0 0.0 0.00 0.00 0.00 87 1017.3
20260507121542 45 0 0.0 0.0 0.00 0.00 0.00 87 1017.3
20260507121025 44 0 0.0 0.0 0.00 0.00 0.00 87 1017.2
20260507120529 44 0 0.0 0.0 0.00 0.00 0.00 87 1017.3
20260507120036 44 0 0.0 0.0 0.00 0.00 0.00 87 1017.2
20260507115525 44 0 0.0 0.0 0.00 0.00 0.00 87 1017.2
20260507115026 44 0 0.0 0.0 0.00 0.00 0.00 87 1017.2
20260507114541 43 0 0.0 0.0 0.00 0.00 0.00 87 1017.2
20260507114026 43 0 0.0 0.0 0.00 0.00 0.00 87 1017.3
20260507113528 43 0 0.0 0.0 0.00 0.00 0.00 87 1017.2
20260507113037 43 0 0.0 0.0 0.00 0.00 0.00 86 1017.2
20260507112524 43 0 0.0 0.0 0.00 0.00 0.00 86 1017.2
20260507112025 43 0 0.0 0.0 0.00 0.00 0.00 86 1017.1
20260507111536 43 0 0.0 0.0 0.00 0.00 0.00 86 1017.1
20260507111024 43 0 0.0 0.0 0.00 0.00 0.00 86 1017.1
20260507110523 43 0 0.0 0.0 0.00 0.00 0.00 86 1017.1
20260507110037 43 0 0.0 0.0 0.00 0.00 0.00 86 1017.1
20260507105526 43 0 0.0 0.0 0.00 0.00 0.00 86 1017.0
20260507105024 43 0 0.0 0.0 0.00 0.00 0.00 86 1017.0
20260507104539 43 0 0.0 0.0 0.00 0.00 0.00 86 1017.0
20260507104025 43 0 0.0 0.0 0.00 0.00 0.00 86 1017.1
20260507103525 43 0 0.0 0.0 0.00 0.00 0.00 86 1017.0
20260507103039 43 0 0.0 0.0 0.00 0.00 0.00 86 1017.1
20260507102525 43 0 0.0 0.0 0.00 0.00 0.00 86 1017.1
20260507102023 44 0 0.0 0.0 0.00 0.00 0.00 85 1017.1
20260507101537 44 0 0.0 0.0 0.00 0.00 0.00 85 1017.1
20260507101028 44 0 0.0 0.0 0.00 0.00 0.00 85 1017.1
20260507100525 44 0 0.0 0.0 0.00 0.00 0.00 85 1017.2
20260507100046 44 0 0.0 0.0 0.00 0.00 0.00 85 1017.2
20260507095528 44 0 0.0 0.0 0.00 0.00 0.00 85 1017.1
20260507095026 44 0 0.0 0.0 0.00 0.00 0.00 85 1017.3
20260507094537 44 0 0.0 0.0 0.00 0.00 0.00 85 1017.1
20260507094026 44 0 0.0 0.0 0.00 0.00 0.00 84 1017.2
20260507093525 44 0 0.0 0.0 0.00 0.00 0.00 84 1017.2
20260507093037 44 0 0.0 0.0 0.00 0.00 0.00 84 1017.2
20260507092522 44 0 0.0 0.0 0.00 0.00 0.00 83 1017.4
20260507092027 44 0 0.0 0.0 0.00 0.00 0.00 83 1017.3
20260507091541 44 0 0.0 0.0 0.00 0.00 0.00 83 1017.3
20260507091022 44 0 0.0 0.0 0.00 0.00 0.00 83 1017.3
20260507090524 44 0 0.0 0.0 0.00 0.00 0.00 82 1017.4
20260507090044 44 0 0.0 0.0 0.00 0.00 0.00 82 1017.4
20260507085524 44 0 0.0 0.0 0.00 0.00 0.00 81 1017.4
20260507085023 44 0 0.0 0.0 0.00 0.00 0.00 81 1017.5
20260507084548 44 0 0.0 0.0 0.00 0.00 0.00 81 1017.5
20260507084025 44 0 0.0 0.0 0.00 0.00 0.00 81 1017.6
20260507083522 44 0 0.0 0.0 0.00 0.00 0.00 80 1017.7
20260507083035 45 0 0.0 0.0 0.00 0.00 0.00 80 1017.7
20260507082523 45 0 0.0 0.0 0.00 0.00 0.00 79 1017.7
20260507082024 45 0 0.0 0.0 0.00 0.00 0.00 79 1017.6
20260507081534 45 0 0.0 0.0 0.00 0.00 0.00 79 1017.6
20260507081023 45 0 0.0 0.0 0.00 0.00 0.00 78 1017.6
20260507080523 45 0 0.0 0.0 0.00 0.00 0.00 78 1017.5
20260507080041 45 0 0.0 0.0 0.00 0.00 0.00 77 1017.6
20260507075522 45 0 0.0 0.0 0.00 0.00 0.00 76 1017.6
20260507075021 46 0 0.0 0.0 0.00 0.00 0.00 76 1017.6
20260507074538 46 0 0.0 0.0 0.00 0.00 0.00 75 1017.5
20260507074023 46 0 0.0 0.0 0.00 0.00 0.00 75 1017.6
20260507073524 46 0 0.0 0.0 0.00 0.00 0.00 75 1017.5
20260507073036 46 0 0.0 0.0 0.00 0.00 0.00 74 1017.6
20260507072526 46 0 0.0 0.0 0.00 0.00 0.00 74 1017.6
20260507072023 46 0 0.0 0.0 0.00 0.00 0.00 73 1017.6
20260507071537 46 0 0.0 0.0 0.00 0.00 0.00 73 1017.7
20260507071027 46 0 0.0 0.0 0.00 0.00 0.00 73 1017.8
20260507070523 46 0 0.0 0.0 0.00 0.00 0.00 72 1017.8
20260507070041 46 0 0.0 0.0 0.00 0.00 0.00 72 1018.0
20260507065521 47 0 0.0 0.0 0.00 0.00 0.00 72 1018.1
20260507065023 47 0 0.0 0.0 0.00 0.00 0.00 72 1018.1
20260507064558 47 0 0.0 0.0 0.00 0.00 0.00 71 1018.1
20260507064023 47 0 0.0 0.0 0.00 0.00 0.00 70 1018.1
20260507063522 47 0 0.0 0.0 0.00 0.00 0.00 70 1018.3
20260507063037 47 0 0.0 0.0 0.00 0.00 0.00 69 1018.3
20260507062525 48 0 0.0 0.0 0.00 0.00 0.00 69 1018.3
20260507062023 48 0 0.0 0.0 0.00 0.00 0.00 68 1018.3
20260507061536 48 0 0.0 0.0 0.00 0.00 0.00 69 1018.3
20260507061020 48 0 0.0 0.0 0.00 0.00 0.00 69 1018.5
20260507060524 48 0 0.0 0.0 0.00 0.00 0.00 68 1018.3
20260507060041 48 0 0.0 0.0 0.00 0.00 0.00 69 1018.4
20260507055522 48 0 0.0 0.0 0.00 0.00 0.00 69 1018.4
20260507055028 48 0 0.0 0.0 0.00 0.00 0.00 70 1018.4
20260507054536 48 0 0.0 0.0 0.00 0.00 0.00 71 1018.4
20260507054024 48 0 0.0 0.0 0.00 0.00 0.00 73 1018.5
20260507053521 47 0 0.0 0.0 0.00 0.00 0.00 75 1018.4
20260507053037 47 0 0.0 0.0 0.00 0.00 0.00 77 1018.4
20260507052524 47 0 0.0 0.0 0.00 0.00 0.00 79 1018.5
20260507052021 47 0 0.0 0.0 0.00 0.00 0.00 80 1018.6
20260507051545 47 0 0.0 0.0 0.00 0.00 0.00 81 1018.5
20260507051024 46 0 0.0 0.0 0.00 0.00 0.00 81 1018.5
20260507050521 46 0 0.0 0.0 0.00 0.00 0.00 81 1018.5
20260507050044 46 0 0.0 0.0 0.00 0.00 0.00 81 1018.5
20260507045524 46 0 0.0 0.0 0.00 0.00 0.00 81 1018.5
20260507045027 46 0 0.0 0.0 0.00 0.00 0.00 80 1018.4
20260507044535 46 0 0.0 0.0 0.00 0.00 0.00 80 1018.5
20260507044023 46 0 0.0 0.0 0.00 0.00 0.00 80 1018.5